TimeCST,TemperatureF,Dew PointF,Humidity,Sea Level PressureIn,VisibilityMPH,Wind Direction,Wind SpeedMPH,Gust SpeedMPH,PrecipitationIn,Events,Conditions,WindDirDegrees,DateUTC
12:53 AM,36.0,35.1,97,30.04,9.0,NNW,15.0,24.2,0.02,Rain,Light Rain,330,2011-11-09 06:53:00
1:53 AM,36.0,35.1,97,30.08,8.0,NW,17.3,26.5,0.04,Rain,Light Rain,320,2011-11-09 07:53:00
2:53 AM,37.0,36.0,96,30.10,10.0,NNW,13.8,-,0.03,Rain,Light Rain,330,2011-11-09 08:53:00
3:25 AM,37.4,35.6,93,30.10,10.0,NNW,15.0,21.9,0.00,Rain,Light Rain,330,2011-11-09 09:25:00
3:46 AM,37.4,35.6,93,30.10,10.0,NNW,10.4,-,0.00,,Overcast,330,2011-11-09 09:46:00
3:53 AM,37.9,36.0,93,30.12,10.0,NNW,12.7,-,0.00,,Overcast,330,2011-11-09 09:53:00
4:53 AM,37.0,36.0,96,30.15,10.0,WNW,6.9,-,N/A,,Partly Cloudy,290,2011-11-09 10:53:00
5:53 AM,36.0,33.1,89,30.17,10.0,WNW,6.9,-,N/A,,Clear,300,2011-11-09 11:53:00
6:53 AM,36.0,32.0,86,30.21,10.0,WNW,8.1,-,N/A,,Clear,290,2011-11-09 12:53:00
7:53 AM,35.6,32.0,87,30.22,10.0,WNW,8.1,-,N/A,,Clear,290,2011-11-09 13:53:00
8:53 AM,39.0,33.1,79,30.27,10.0,WNW,9.2,-,N/A,,Clear,300,2011-11-09 14:53:00
9:53 AM,44.1,33.1,65,30.28,10.0,NW,10.4,-,N/A,,Clear,310,2011-11-09 15:53:00
10:53 AM,46.9,34.0,61,30.29,10.0,WNW,10.4,-,N/A,,Clear,290,2011-11-09 16:53:00
11:53 AM,50.0,33.8,54,30.27,10.0,WNW,10.4,-,N/A,,Clear,290,2011-11-09 17:53:00
12:53 PM,51.8,30.2,44,30.27,10.0,NW,18.4,26.5,N/A,,Clear,310,2011-11-09 18:53:00
1:53 PM,53.1,30.0,41,30.28,10.0,NW,20.7,25.3,N/A,,Clear,320,2011-11-09 19:53:00
2:53 PM,54.0,30.0,40,30.28,10.0,NW,16.1,25.3,N/A,,Clear,320,2011-11-09 20:53:00
3:53 PM,53.1,28.0,38,30.29,10.0,NW,13.8,-,N/A,,Clear,320,2011-11-09 21:53:00
4:53 PM,50.0,25.0,38,30.30,10.0,NW,11.5,23.0,N/A,,Clear,310,2011-11-09 22:53:00
5:53 PM,46.9,23.0,39,30.32,10.0,NW,11.5,-,N/A,,Clear,310,2011-11-09 23:53:00
6:53 PM,43.0,24.1,47,30.32,10.0,NW,8.1,-,N/A,,Clear,320,2011-11-10 00:53:00
7:53 PM,39.9,24.1,53,30.34,10.0,WNW,6.9,-,N/A,,Clear,300,2011-11-10 01:53:00
8:53 PM,39.0,24.1,55,30.35,10.0,NW,6.9,-,N/A,,Clear,310,2011-11-10 02:53:00
9:53 PM,37.0,25.0,62,30.35,10.0,Calm,Calm,-,N/A,,Clear,0,2011-11-10 03:53:00
10:53 PM,36.0,24.1,62,30.34,10.0,West,4.6,-,N/A,,Clear,270,2011-11-10 04:53:00
11:53 PM,35.1,25.0,67,30.34,10.0,West,4.6,-,N/A,,Clear,270,2011-11-10 05:53:00